Location: Ostrava
(49.8330°N, 18.2830°E)
Time: 00:21:51
(UTC+01:00)

Daily predictions for brighter satellites

Satellite Brightness Start Highest point End
(mag) Time Altitude Azimuth Time Altitude Azimuth Time Altitude Azimuth
CZ-2D R/B 4.4 02:37:29 10° NNE 02:38:45 18° NNE 02:38:45 18° NNE
ADEOS II 4.2 02:43:34 10° NE 02:47:31 21° E 02:47:38 21° E
Resurs 1-4 Rocket 4.3 02:54:47 10° N 02:56:08 18° N 02:56:08 18° N
ATLAS CENTAUR R/B 4.0 03:02:57 40° ESE 03:02:57 40° ESE 03:09:54 10° ESE
Lacrosse 4 Rocket 4.3 03:13:42 14° NE 03:13:42 14° NE 03:14:19 10° NE
Okean O Rocket 3.9 03:13:10 10° NNE 03:14:43 20° NE 03:14:43 20° NE
USA 234 3.8 03:16:30 10° ENE 03:22:48 48° SE 03:23:03 48° SE
Cosmos 2344 4.3 03:29:59 42° NW 03:31:20 45° NNW 03:40:53 10° NE
Iridium 4 Rocket 4.1 03:29:39 10° N 03:35:11 64° E 03:35:26 63° E
MOS 1 Rocket 3.9 03:44:00 10° NNE 03:48:33 63° N 03:48:33 63° N
ADEOS Rocket 3.6 03:43:25 10° N 03:49:25 48° NW 03:49:25 48° NW
Cosmos 2278 Rocket 3.6 03:53:04 27° NNW 03:53:04 27° NNW 03:56:32 10° NNE
Cosmos 2369 Rocket 3.5 03:53:50 18° SSE 03:57:26 37° ESE 04:02:37 10° NE
Okean-O 3.9 03:59:21 10° NNE 04:03:30 38° E 04:06:26 17° SSE
Lacrosse 5 rocket 2.9 04:15:59 24° NNE 04:15:59 24° NNE 04:18:25 10° NE
Cosmos 2084 Rocket 4.0 04:18:01 47° NNE 04:18:01 47° NNE 04:20:52 10° NE
Cosmos 1190 Rocket 4.3 04:13:15 10° NNW 04:18:29 66° ENE 04:23:43 10° SE
CZ-2D R/B 4.2 04:18:51 10° NNW 04:20:05 14° NNW 04:20:05 14° NNW
Cosmos 1908 Rocket 4.4 04:19:09 10° N 04:23:33 52° ENE 04:27:55 10° SSE
ADEOS II 2.0 04:22:29 10° N 04:27:43 65° WNW 04:28:36 55° WSW
Cosmos 1455 4.5 04:35:18 14° NNW 04:35:18 14° NNW 04:36:00 10° N
PSLV R/B 4.2 04:29:16 10° N 04:32:18 41° NNW 04:32:18 41° NNW
CZ-4B R/B 3.3 04:28:55 10° N 04:34:21 56° WNW 04:35:40 45° WSW
Nadezhda 2 Rocket 4.4 04:29:29 10° N 04:35:39 86° E 04:41:46 10° S
Cosmos 2056 Rocket 4.3 04:31:05 10° S 04:36:00 50° ESE 04:41:01 10° NNE
Resurs 1-4 Rocket 4.3 04:36:38 10° NNW 04:37:14 11° NNW 04:37:14 11° NNW
SKYMED 2 3.9 04:37:10 10° SSE 04:41:28 68° ENE 04:45:48 10° N
Lacrosse 5 4.3 04:38:49 10° S 04:42:24 20° SE 04:45:58 10° E
Cosmos 1869 4.3 04:44:35 32° NNW 04:44:35 32° NNW 04:47:10 10° N
Cosmos 2266 Rocket 4.0 04:42:00 10° NNW 04:48:00 52° W 04:53:53 10° SSW
Feng Yun 1-1 Rocket 4.3 04:42:59 10° NNE 04:48:50 90° WNW 04:54:44 10° SSW
Lacrosse 4 Rocket 3.2 04:50:03 18° NNW 04:50:03 18° NNW 04:52:23 10° N
Thor Agena Rocket 3.5 04:44:25 10° S 04:49:34 57° WSW 04:54:42 10° NNW
RUBIN 8/PSLV 4.5 04:45:44 10° N 04:50:10 72° WNW 04:52:53 23° SSW
Meteor PRIRODA 4.0 04:48:48 10° N 04:51:55 46° NW 04:51:55 46° NW
ATLAS 5 CENTAUR R/B 3.2 04:48:02 10° S 04:52:28 39° ESE 04:57:17 10° NE
Cosmos 2242 Rocket 4.0 04:53:19 41° WNW 04:53:19 41° WNW 04:57:29 10° N
Okean O Rocket 3.1 04:49:57 10° N 04:52:11 21° NW 04:52:11 21° NW
Cosmos 921 Rocket 2.9 04:53:50 29° SSW 04:56:00 72° WNW 05:00:20 10° NNE
deb Kosmos-1763 4.2 04:56:54 50° W 04:57:14 53° WSW 05:00:56 10° S
Cosmos 1862 Rocket 3.5 04:57:13 25° SSW 04:59:37 57° WNW 05:03:55 10° N
CZ-4B R/B 3.7 04:56:57 10° N 05:00:43 62° WNW 05:03:08 22° SSW
Cosmos 1943 Rocket 2.8 04:55:41 10° S 05:01:04 57° ESE 05:06:30 10° NE
Cosmos 1371 Rocket 3.9 04:58:58 12° SSW 05:03:43 78° WNW 05:08:56 10° NNE
DMSP B5D1-3 4.5 04:59:29 10° SSE 05:04:35 88° ENE 05:09:44 10° NNW
USA 234 3.3 04:59:32 10° ENE 05:06:03 73° NNW 05:10:24 23° WSW
Cosmos 1703 Rocket 3.8 05:03:01 10° S 05:07:19 72° E 05:11:41 10° NNE
Cosmos 2221 Rocket 3.9 05:11:19 10° S 05:15:50 71° E 05:20:24 10° NNE
ERS-2 3.6 05:14:12 10° NNW 05:16:26 21° NW 05:16:26 21° NW
Cosmos 1452 Rocket 4.5 05:12:42 10° S 05:17:47 50° ESE 05:22:54 10° NNE
Cosmos 2297 Rocket 4.2 05:13:19 10° NNW 05:17:56 25° NE 05:22:31 10° E
Meteor 2-10 Rocket 3.4 05:16:16 10° S 05:21:16 86° E 05:26:21 10° NNE
Meteor 1-28 Rocket 3.1 05:17:37 10° S 05:21:18 65° W 05:25:02 10° NNW
Meteor 1-31 Rocket 3.5 05:20:26 10° N 05:23:59 33° WNW 05:26:10 19° WSW
Cosmos 2219 3.4 05:18:41 10° NNW 05:24:26 74° ENE 05:30:05 10° SE
CZ-2C R/B 4.3 05:21:31 10° NNE 05:25:52 33° E 05:30:17 10° SSE
COSMO-SKYMED 1 2.9 05:25:27 10° S 05:29:33 41° W 05:33:42 10° NNW
Cosmos 1933 4.1 05:30:53 11° SW 05:34:14 31° WNW 05:37:54 10° N
Cosmos 1867 3.7 05:30:01 12° SW 05:35:02 60° NW 05:40:28 10° NE
Radarsat Rocket 4.4 05:27:43 10° NNE 05:35:34 79° WNW 05:42:24 10° SSW
Cosmos 676 Rocket 4.2 05:31:10 10° NNW 05:36:16 50° WSW 05:41:23 10° S
BREEZE M DEB (TANK) 3.8 05:24:25 13° WSW 05:36:53 82° S 05:41:01 10° E
Cosmos 2227 Rocket 3.6 05:32:02 10° NNW 05:37:19 37° NE 05:42:33 10° ESE
Cosmos 2278 Rocket 4.3 05:36:05 10° NW 05:37:36 11° NNW 05:39:09 10° N
Cosmos 972 Rocket 4.3 05:32:50 10° SW 05:37:38 45° WNW 05:42:54 10° NNE
Cosmos 407 Rocket 4.1 05:32:50 10° NW 05:37:42 36° WSW 05:42:32 10° SSW
Sich 1 Rocket 4.4 05:34:32 10° NNW 05:38:30 29° W 05:42:24 10° SSW
Cosmos 1606 4.4 05:35:07 10° SSE 05:38:42 38° E 05:42:20 10° NNE
Okean-O 3.5 05:36:06 10° N 05:39:52 28° WNW 05:43:39 10° WSW
Cosmos 2369 Rocket 2.6 05:35:58 10° SW 05:41:24 45° NW 05:46:50 10° NNE
Cosmos 1023 Rocket 4.5 05:37:18 10° NNW 05:42:30 69° WSW 05:47:42 10° SSE
Meteor 1-14 Rocket 4.5 05:39:18 10° NNW 05:44:59 50° W 05:50:31 10° SSW
CZ-3B DEB 1.5 05:49:17 12° NNW 05:49:44 13° N 05:50:30 10° NE
Abrixas 3.9 05:49:06 10° SW 05:51:44 32° SSE 05:54:22 10° E
IDEFIX/ARIANE 42P 3.3 05:47:26 10° NNE 05:52:38 59° E 05:57:46 10° S
Lacrosse 5 rocket 2.1 05:51:48 10° NW 05:55:12 36° NNE 05:58:35 10° E
S3M 4.0 05:49:13 10° SSW 05:55:34 71° WNW 06:01:53 10° N
YAOGAN 1 4.0 05:56:11 10° NNE 06:00:20 43° E 06:04:27 10° S
Cosmos 1633 3.3 05:56:44 10° N 06:00:22 59° ENE 06:03:58 10° SSE
Meteor 1-20 Rocket 4.4 05:59:47 10° NNW 06:05:25 54° W 06:10:54 10° S
Cosmos 1553 Rocket 4.1 06:00:07 10° SSW 06:06:11 58° WNW 06:12:23 10° N
ADEOS II 3.8 06:04:10 10° NNW 06:06:29 13° NW 06:08:47 10° WNW
Cosmos 1140 Rocket 3.9 06:05:52 10° NW 06:10:45 41° WSW 06:15:37 10° S
SMAP 3.5 06:08:20 10° NNE 06:13:01 69° ESE 06:17:38 10° S
Cosmos 1656 Rocket 3.7 06:10:47 10° SSW 06:16:30 83° WNW 06:22:14 10° NNE
Cosmos 1850 Rocket 4.2 06:12:19 10° NNW 06:17:34 55° WSW 06:22:45 10° S
